Year,Month,Day,Hour,Minute,Value (Times are PST for windspeed in km/hr)
2011,11,27,00,00,17.00
2011,11,27,00,01,16.30
2011,11,27,00,02,16.70
2011,11,27,00,03,14.20
2011,11,27,00,04,21.60
2011,11,27,00,05,12.80
2011,11,27,00,06,18.50
2011,11,27,00,07,20.50
2011,11,27,00,08,17.90
2011,11,27,00,09,21.50
2011,11,27,00,10,14.20
2011,11,27,00,11,9.40
2011,11,27,00,12,8.50
2011,11,27,00,13,20.10
2011,11,27,00,14,17.20
2011,11,27,00,15,17.10
2011,11,27,00,16,13.40
2011,11,27,00,17,15.90
2011,11,27,00,18,14.30
2011,11,27,00,19,13.50
2011,11,27,00,20,16.20
2011,11,27,00,21,17.30
2011,11,27,00,22,15.60
2011,11,27,00,23,13.90
2011,11,27,00,24,9.70
2011,11,27,00,25,15.20
2011,11,27,00,26,13.40
2011,11,27,00,27,10.30
2011,11,27,00,28,9.70
2011,11,27,00,29,4.50
2011,11,27,00,30,9.50
2011,11,27,00,31,8.30
2011,11,27,00,32,5.20
2011,11,27,00,33,11.50
2011,11,27,00,34,12.10
2011,11,27,00,35,6.30
2011,11,27,00,36,5.80
2011,11,27,00,37,4.40
2011,11,27,00,38,6.00
2011,11,27,00,39,9.00
2011,11,27,00,40,10.30
2011,11,27,00,41,7.40
2011,11,27,00,42,6.30
2011,11,27,00,43,5.50
2011,11,27,00,44,9.10
2011,11,27,00,45,4.30
2011,11,27,00,46,5.00
2011,11,27,00,47,10.60
2011,11,27,00,48,6.60
2011,11,27,00,49,4.20
2011,11,27,00,50,5.50
2011,11,27,00,51,6.40
2011,11,27,00,52,11.90
2011,11,27,00,53,6.60
2011,11,27,00,54,9.70
2011,11,27,00,55,7.40
2011,11,27,00,56,7.30
2011,11,27,00,57,4.20
2011,11,27,00,58,5.40
2011,11,27,00,59,9.50
2011,11,27,01,00,12.50
2011,11,27,01,01,8.60
2011,11,27,01,02,9.00
2011,11,27,01,03,4.70
2011,11,27,01,04,6.70
2011,11,27,01,05,6.00
2011,11,27,01,06,8.10
2011,11,27,01,07,7.20
2011,11,27,01,08,7.60
2011,11,27,01,09,8.30
2011,11,27,01,10,6.80
2011,11,27,01,11,8.90
2011,11,27,01,12,6.40
2011,11,27,01,13,9.90
2011,11,27,01,14,14.70
2011,11,27,01,15,16.00
2011,11,27,01,16,10.20
2011,11,27,01,17,8.50
2011,11,27,01,18,5.30
2011,11,27,01,19,12.30
2011,11,27,01,20,9.30
2011,11,27,01,21,7.50
2011,11,27,01,22,6.40
2011,11,27,01,23,6.80
2011,11,27,01,24,5.30
2011,11,27,01,25,8.40
2011,11,27,01,26,11.40
2011,11,27,01,27,13.50
2011,11,27,01,28,12.30
2011,11,27,01,29,11.70
2011,11,27,01,30,10.70
2011,11,27,01,31,15.10
2011,11,27,01,32,19.20
2011,11,27,01,33,16.80
2011,11,27,01,34,15.40
2011,11,27,01,35,14.50
2011,11,27,01,36,14.00
2011,11,27,01,37,10.60
2011,11,27,01,38,6.00
2011,11,27,01,39,8.00
2011,11,27,01,40,10.00
2011,11,27,01,41,8.90
2011,11,27,01,42,11.80
2011,11,27,01,43,18.10
2011,11,27,01,44,14.20
2011,11,27,01,45,10.00
2011,11,27,01,46,11.10
2011,11,27,01,47,9.70
2011,11,27,01,48,6.70
2011,11,27,01,49,11.40
2011,11,27,01,50,12.00
2011,11,27,01,51,6.80
2011,11,27,01,52,2.60
2011,11,27,01,53,7.50
2011,11,27,01,54,9.90
2011,11,27,01,55,7.70
2011,11,27,01,56,15.80
2011,11,27,01,57,12.80
2011,11,27,01,58,7.30
2011,11,27,01,59,8.00
2011,11,27,02,00,9.80
2011,11,27,02,01,12.20
2011,11,27,02,02,10.70
2011,11,27,02,03,5.70
2011,11,27,02,04,3.10
2011,11,27,02,05,6.30
2011,11,27,02,06,8.60
2011,11,27,02,07,5.10
2011,11,27,02,08,7.00
2011,11,27,02,09,8.30
2011,11,27,02,10,7.00
2011,11,27,02,11,8.80
2011,11,27,02,12,6.30
2011,11,27,02,13,10.70
2011,11,27,02,14,11.00
2011,11,27,02,15,8.40
2011,11,27,02,16,8.50
2011,11,27,02,17,5.80
2011,11,27,02,18,8.80
2011,11,27,02,19,6.40
2011,11,27,02,20,7.90
2011,11,27,02,21,6.80
2011,11,27,02,22,10.90
2011,11,27,02,23,11.30
2011,11,27,02,24,10.30
2011,11,27,02,25,6.70
2011,11,27,02,26,9.00
2011,11,27,02,27,8.00
2011,11,27,02,28,13.50
2011,11,27,02,29,10.00
2011,11,27,02,30,10.10
2011,11,27,02,31,7.20
2011,11,27,02,32,4.00
2011,11,27,02,33,6.60
2011,11,27,02,34,8.30
2011,11,27,02,35,6.00
2011,11,27,02,36,4.90
2011,11,27,02,37,7.40
2011,11,27,02,38,6.90
2011,11,27,02,39,7.90
2011,11,27,02,40,5.90
2011,11,27,02,41,5.10
2011,11,27,02,42,8.40
2011,11,27,02,43,11.00
2011,11,27,02,44,7.70
2011,11,27,02,45,8.50
2011,11,27,02,46,6.80
2011,11,27,02,47,8.40
2011,11,27,02,48,7.20
2011,11,27,02,49,6.40
2011,11,27,02,50,7.60
2011,11,27,02,51,9.40
2011,11,27,02,52,9.50
2011,11,27,02,53,7.10
2011,11,27,02,54,8.40
2011,11,27,02,55,7.50
2011,11,27,02,56,9.00
2011,11,27,02,57,7.30
2011,11,27,02,58,7.80
2011,11,27,02,59,9.30
2011,11,27,03,00,9.10
2011,11,27,03,01,4.80
2011,11,27,03,02,7.80
2011,11,27,03,03,12.40
2011,11,27,03,04,9.00
2011,11,27,03,05,7.80
2011,11,27,03,06,11.50
2011,11,27,03,07,12.20
2011,11,27,03,08,9.30
2011,11,27,03,09,12.90
2011,11,27,03,10,7.10
2011,11,27,03,11,11.70
2011,11,27,03,12,11.50
2011,11,27,03,13,9.00
2011,11,27,03,14,11.40
2011,11,27,03,15,10.70
2011,11,27,03,16,9.60
2011,11,27,03,17,13.00
2011,11,27,03,18,11.60
2011,11,27,03,19,12.90
2011,11,27,03,20,11.30
2011,11,27,03,21,12.80
2011,11,27,03,22,7.50
2011,11,27,03,23,5.90
2011,11,27,03,24,8.40
2011,11,27,03,25,9.60
2011,11,27,03,26,10.30
2011,11,27,03,27,7.70
2011,11,27,03,28,4.40
2011,11,27,03,29,9.30
2011,11,27,03,30,13.50
2011,11,27,03,31,8.10
2011,11,27,03,32,6.20
2011,11,27,03,33,6.10
2011,11,27,03,34,9.60
2011,11,27,03,35,11.50
2011,11,27,03,36,12.10
2011,11,27,03,37,6.00
2011,11,27,03,38,3.50
2011,11,27,03,39,12.10
2011,11,27,03,40,5.10
2011,11,27,03,41,5.70
2011,11,27,03,42,7.20
2011,11,27,03,43,6.90
2011,11,27,03,44,6.20
2011,11,27,03,45,2.90
2011,11,27,03,46,6.80
2011,11,27,03,47,9.10
2011,11,27,03,48,10.50
2011,11,27,03,49,11.20
2011,11,27,03,50,10.60
2011,11,27,03,51,6.00
2011,11,27,03,52,8.60
2011,11,27,03,53,10.80
2011,11,27,03,54,8.00
2011,11,27,03,55,4.40
2011,11,27,03,56,6.40
2011,11,27,03,57,8.60
2011,11,27,03,58,7.90
2011,11,27,03,59,7.50
2011,11,27,04,00,7.30
2011,11,27,04,01,11.40
2011,11,27,04,02,11.60
2011,11,27,04,03,9.30
2011,11,27,04,04,6.00
2011,11,27,04,05,10.20
2011,11,27,04,06,9.70
2011,11,27,04,07,8.30
2011,11,27,04,08,11.10
2011,11,27,04,09,5.90
2011,11,27,04,10,7.70
2011,11,27,04,11,11.70
2011,11,27,04,12,10.70
2011,11,27,04,13,4.50
2011,11,27,04,14,15.40
2011,11,27,04,15,8.90
2011,11,27,04,16,14.70
2011,11,27,04,17,9.70
2011,11,27,04,18,8.20
2011,11,27,04,19,8.20
2011,11,27,04,20,9.10
2011,11,27,04,21,10.10
2011,11,27,04,22,11.70
2011,11,27,04,23,13.00
2011,11,27,04,24,9.00
2011,11,27,04,25,8.50
2011,11,27,04,26,11.40
2011,11,27,04,27,9.20
2011,11,27,04,28,10.00
2011,11,27,04,29,8.80
2011,11,27,04,30,9.00
2011,11,27,04,31,8.90
2011,11,27,04,32,7.30
2011,11,27,04,33,8.90
2011,11,27,04,34,10.60
2011,11,27,04,35,7.70
2011,11,27,04,36,8.70
2011,11,27,04,37,6.10
2011,11,27,04,38,6.10
2011,11,27,04,39,9.00
2011,11,27,04,40,8.40
2011,11,27,04,41,6.60
2011,11,27,04,42,5.30
2011,11,27,04,43,8.50
2011,11,27,04,44,7.80
2011,11,27,04,45,11.60
2011,11,27,04,46,6.00
2011,11,27,04,47,8.90
2011,11,27,04,48,4.70
2011,11,27,04,49,8.60
2011,11,27,04,50,10.30
2011,11,27,04,51,9.90
2011,11,27,04,52,6.30
2011,11,27,04,53,8.90
2011,11,27,04,54,8.90
2011,11,27,04,55,8.40
2011,11,27,04,56,8.80
2011,11,27,04,57,6.60
2011,11,27,04,58,10.40
2011,11,27,04,59,6.70
2011,11,27,05,00,4.70
2011,11,27,05,01,6.40
2011,11,27,05,02,6.70
2011,11,27,05,03,3.60
2011,11,27,05,04,5.40
2011,11,27,05,05,11.90
2011,11,27,05,06,5.00
2011,11,27,05,07,7.90
2011,11,27,05,08,9.30
2011,11,27,05,09,8.10
2011,11,27,05,10,7.10
2011,11,27,05,11,7.80
2011,11,27,05,12,9.70
2011,11,27,05,13,8.70
2011,11,27,05,14,9.40
2011,11,27,05,15,8.90
2011,11,27,05,16,6.00
2011,11,27,05,17,6.80
2011,11,27,05,18,3.40
2011,11,27,05,19,6.60
2011,11,27,05,20,10.20
2011,11,27,05,21,7.20
2011,11,27,05,22,5.60
2011,11,27,05,23,3.90
2011,11,27,05,24,4.40
2011,11,27,05,25,5.50
2011,11,27,05,26,7.90
2011,11,27,05,27,5.70
2011,11,27,05,28,7.20
2011,11,27,05,29,5.20
2011,11,27,05,30,4.30
2011,11,27,05,31,5.60
2011,11,27,05,32,4.20
2011,11,27,05,33,2.70
2011,11,27,05,34,4.70
2011,11,27,05,35,7.00
2011,11,27,05,36,10.80
2011,11,27,05,37,6.70
2011,11,27,05,38,5.70
2011,11,27,05,39,5.10
2011,11,27,05,40,6.00
2011,11,27,05,41,5.00
2011,11,27,05,42,5.10
2011,11,27,05,43,2.70
2011,11,27,05,44,3.40
2011,11,27,05,45,5.60
2011,11,27,05,46,5.70
2011,11,27,05,47,6.40
2011,11,27,05,48,2.90
2011,11,27,05,49,0.00
2011,11,27,05,50,0.10
2011,11,27,05,51,0.00
2011,11,27,05,52,2.70
2011,11,27,05,53,4.10
2011,11,27,05,54,3.30
2011,11,27,05,55,4.10
2011,11,27,05,56,0.60
2011,11,27,05,57,1.50
2011,11,27,05,58,1.90
2011,11,27,05,59,0.50
2011,11,27,06,00,4.70
2011,11,27,06,01,3.00
2011,11,27,06,02,3.10
2011,11,27,06,03,2.30
2011,11,27,06,04,0.30
2011,11,27,06,05,2.30
2011,11,27,06,06,0.00
2011,11,27,06,07,4.70
2011,11,27,06,08,0.80
2011,11,27,06,09,0.50
2011,11,27,06,10,2.50
2011,11,27,06,11,3.50
2011,11,27,06,12,1.20
2011,11,27,06,13,1.60
2011,11,27,06,14,1.50
2011,11,27,06,15,3.30
2011,11,27,06,16,7.30
2011,11,27,06,17,6.30
2011,11,27,06,18,5.30
2011,11,27,06,19,4.10
2011,11,27,06,20,4.60
2011,11,27,06,21,3.30
2011,11,27,06,22,0.40
2011,11,27,06,23,0.20
2011,11,27,06,24,3.30
2011,11,27,06,25,0.00
2011,11,27,06,26,0.00
2011,11,27,06,27,0.00
2011,11,27,06,28,0.00
2011,11,27,06,29,0.10
2011,11,27,06,30,0.10
2011,11,27,06,31,0.00
2011,11,27,06,32,0.00
2011,11,27,06,33,0.00
2011,11,27,06,34,0.00
2011,11,27,06,35,0.00
2011,11,27,06,36,0.00
2011,11,27,06,37,0.00
2011,11,27,06,38,0.00
2011,11,27,06,39,0.00
2011,11,27,06,40,0.00
2011,11,27,06,41,0.00
2011,11,27,06,42,0.00
2011,11,27,06,43,0.00
2011,11,27,06,44,0.00
2011,11,27,06,45,0.00
2011,11,27,06,46,0.00
2011,11,27,06,47,0.00
2011,11,27,06,48,0.00
2011,11,27,06,49,0.30
2011,11,27,06,50,1.50
2011,11,27,06,51,0.00
2011,11,27,06,52,0.10
2011,11,27,06,53,0.00
2011,11,27,06,54,0.00
2011,11,27,06,55,1.40
2011,11,27,06,56,0.00
2011,11,27,06,57,0.00
2011,11,27,06,58,0.10
2011,11,27,06,59,0.00
2011,11,27,07,00,0.00
2011,11,27,07,01,0.00
2011,11,27,07,02,0.70
2011,11,27,07,03,0.90
2011,11,27,07,04,3.70
2011,11,27,07,05,6.40
2011,11,27,07,06,3.80
2011,11,27,07,07,1.80
2011,11,27,07,08,4.30
2011,11,27,07,09,2.40
2011,11,27,07,10,2.20
2011,11,27,07,11,2.00
2011,11,27,07,12,0.00
2011,11,27,07,13,0.00
2011,11,27,07,14,0.30
2011,11,27,07,15,0.40
2011,11,27,07,16,0.00
2011,11,27,07,17,3.40
2011,11,27,07,18,0.30
2011,11,27,07,19,0.10
2011,11,27,07,20,0.10
2011,11,27,07,21,1.80
2011,11,27,07,22,3.70
2011,11,27,07,23,3.30
2011,11,27,07,24,2.10
2011,11,27,07,25,3.30
2011,11,27,07,26,0.10
2011,11,27,07,27,0.70
2011,11,27,07,28,0.20
2011,11,27,07,29,0.00
2011,11,27,07,30,0.00
2011,11,27,07,31,0.00
2011,11,27,07,32,0.00
2011,11,27,07,33,0.00
2011,11,27,07,34,0.00
2011,11,27,07,35,0.00
2011,11,27,07,36,0.00
2011,11,27,07,37,0.00
2011,11,27,07,38,0.00
2011,11,27,07,39,0.00
2011,11,27,07,40,0.00
2011,11,27,07,41,0.00
2011,11,27,07,42,0.00
2011,11,27,07,43,0.00
2011,11,27,07,44,0.00
2011,11,27,07,45,0.00
2011,11,27,07,46,0.00
2011,11,27,07,47,0.00
2011,11,27,07,48,0.00
2011,11,27,07,49,0.00
2011,11,27,07,50,0.00
2011,11,27,07,51,0.00
2011,11,27,07,52,0.00
2011,11,27,07,53,0.00
2011,11,27,07,54,0.10
2011,11,27,07,55,0.80
2011,11,27,07,56,4.20
2011,11,27,07,57,5.80
2011,11,27,07,58,8.90
2011,11,27,07,59,7.90
2011,11,27,08,00,5.60
2011,11,27,08,01,4.70
2011,11,27,08,02,1.80
2011,11,27,08,03,0.80
2011,11,27,08,04,2.30
2011,11,27,08,05,2.70
2011,11,27,08,06,4.20
2011,11,27,08,07,7.10
2011,11,27,08,08,5.50
2011,11,27,08,09,6.50
2011,11,27,08,10,6.70
2011,11,27,08,11,7.10
2011,11,27,08,12,8.10
2011,11,27,08,13,9.70
2011,11,27,08,14,6.20
2011,11,27,08,15,5.30
2011,11,27,08,16,5.90
2011,11,27,08,17,4.80
2011,11,27,08,18,6.90
2011,11,27,08,19,5.20
2011,11,27,08,20,6.70
2011,11,27,08,21,7.50
2011,11,27,08,22,6.50
2011,11,27,08,23,8.40
2011,11,27,08,24,7.00
2011,11,27,08,25,8.60
2011,11,27,08,26,6.20
2011,11,27,08,27,1.20
2011,11,27,08,28,2.70
2011,11,27,08,29,0.80
2011,11,27,08,30,2.70
2011,11,27,08,31,2.00
2011,11,27,08,32,6.40
2011,11,27,08,33,1.80
2011,11,27,08,34,0.00
2011,11,27,08,35,0.70
2011,11,27,08,36,0.10
2011,11,27,08,37,0.20
2011,11,27,08,38,0.80
2011,11,27,08,39,0.90
2011,11,27,08,40,1.00
2011,11,27,08,41,0.50
2011,11,27,08,42,3.10
2011,11,27,08,43,2.60
2011,11,27,08,44,1.00
2011,11,27,08,45,2.60
2011,11,27,08,46,2.70
2011,11,27,08,47,5.60
2011,11,27,08,48,5.80
2011,11,27,08,49,5.70
2011,11,27,08,50,7.20
2011,11,27,08,51,8.00
2011,11,27,08,52,7.30
2011,11,27,08,53,6.40
2011,11,27,08,54,7.00
2011,11,27,08,55,6.80
2011,11,27,08,56,7.20
2011,11,27,08,57,5.70
2011,11,27,08,58,8.10
2011,11,27,08,59,7.10
2011,11,27,09,00,6.00
2011,11,27,09,01,6.40
2011,11,27,09,02,5.80
2011,11,27,09,03,6.40
2011,11,27,09,04,5.10
2011,11,27,09,05,4.30
2011,11,27,09,06,2.80
2011,11,27,09,07,4.90
2011,11,27,09,08,5.10
2011,11,27,09,09,3.00
2011,11,27,09,10,0.20
2011,11,27,09,11,1.60
2011,11,27,09,12,3.90
2011,11,27,09,13,1.00
2011,11,27,09,14,0.90
2011,11,27,09,15,2.20
2011,11,27,09,16,1.00
2011,11,27,09,17,0.30
2011,11,27,09,18,1.60
2011,11,27,09,19,0.20
2011,11,27,09,20,1.40
2011,11,27,09,21,3.30
2011,11,27,09,22,3.50
2011,11,27,09,23,3.40
2011,11,27,09,24,0.70
2011,11,27,09,25,0.60
2011,11,27,09,26,0.50
2011,11,27,09,27,0.10
2011,11,27,09,28,0.50
2011,11,27,09,29,0.40
2011,11,27,09,30,1.00
2011,11,27,09,31,0.80
2011,11,27,09,32,0.10
2011,11,27,09,33,1.40
2011,11,27,09,34,1.00
2011,11,27,09,35,1.40
2011,11,27,09,36,0.00
2011,11,27,09,37,1.80
2011,11,27,09,38,1.00
2011,11,27,09,39,0.90
2011,11,27,09,40,4.80
2011,11,27,09,41,5.00
2011,11,27,09,42,6.20
2011,11,27,09,43,4.50
2011,11,27,09,44,2.30
2011,11,27,09,45,0.30
2011,11,27,09,46,2.70
2011,11,27,09,47,0.90
2011,11,27,09,48,0.20
2011,11,27,09,49,1.40
2011,11,27,09,50,0.00
2011,11,27,09,51,2.00
2011,11,27,09,52,2.10
2011,11,27,09,53,0.80
2011,11,27,09,54,2.00
2011,11,27,09,55,2.90
2011,11,27,09,56,3.90
2011,11,27,09,57,1.10
2011,11,27,09,58,0.30
2011,11,27,09,59,0.90
2011,11,27,10,00,0.80
2011,11,27,10,01,0.00
2011,11,27,10,02,0.00
2011,11,27,10,03,0.00
2011,11,27,10,04,0.00
2011,11,27,10,05,0.80
2011,11,27,10,06,0.10
2011,11,27,10,07,0.00
2011,11,27,10,08,0.00
2011,11,27,10,09,2.70
2011,11,27,10,10,1.10
2011,11,27,10,11,0.20
2011,11,27,10,12,4.00
2011,11,27,10,13,2.40
2011,11,27,10,14,0.00
2011,11,27,10,15,2.80
2011,11,27,10,16,0.00
2011,11,27,10,17,0.10
2011,11,27,10,18,3.50
2011,11,27,10,19,2.80
2011,11,27,10,20,5.60
2011,11,27,10,21,3.50
2011,11,27,10,22,3.60
2011,11,27,10,23,3.50
2011,11,27,10,24,4.50
2011,11,27,10,25,0.70
2011,11,27,10,26,0.00
2011,11,27,10,27,1.60
2011,11,27,10,28,1.50
2011,11,27,10,29,2.50
2011,11,27,10,30,1.70
2011,11,27,10,31,0.90
2011,11,27,10,32,0.00
2011,11,27,10,33,0.10
2011,11,27,10,34,0.00
2011,11,27,10,35,0.00
2011,11,27,10,36,0.00
2011,11,27,10,37,0.00
2011,11,27,10,38,0.00
2011,11,27,10,39,0.20
2011,11,27,10,40,1.20
2011,11,27,10,41,3.80
2011,11,27,10,42,2.40
2011,11,27,10,43,0.00
2011,11,27,10,44,0.00
2011,11,27,10,45,0.00
2011,11,27,10,46,0.00
2011,11,27,10,47,0.00
2011,11,27,10,48,0.00
2011,11,27,10,49,0.00
2011,11,27,10,50,2.80
2011,11,27,10,51,2.60
2011,11,27,10,52,3.90
2011,11,27,10,53,5.80
2011,11,27,10,54,5.70
2011,11,27,10,55,1.60
2011,11,27,10,56,3.60
2011,11,27,10,57,4.20
2011,11,27,10,58,6.80
2011,11,27,10,59,5.20
2011,11,27,11,00,5.00
2011,11,27,11,01,6.80
2011,11,27,11,02,10.50
2011,11,27,11,03,6.40
2011,11,27,11,04,7.00
2011,11,27,11,05,5.50
2011,11,27,11,06,0.80
2011,11,27,11,07,4.00
2011,11,27,11,08,5.80
2011,11,27,11,09,4.70
2011,11,27,11,10,3.20
2011,11,27,11,11,3.10
2011,11,27,11,12,2.00
2011,11,27,11,13,1.50
2011,11,27,11,14,2.30
2011,11,27,11,15,3.00
2011,11,27,11,16,2.90
2011,11,27,11,17,0.60
2011,11,27,11,18,0.00
2011,11,27,11,19,3.60
2011,11,27,11,20,4.80
2011,11,27,11,21,5.40
2011,11,27,11,22,5.90
2011,11,27,11,23,5.00
2011,11,27,11,24,3.50
2011,11,27,11,25,3.60
2011,11,27,11,26,2.10
2011,11,27,11,27,1.00
2011,11,27,11,28,0.40
2011,11,27,11,29,1.10
2011,11,27,11,30,1.90
2011,11,27,11,31,4.70
2011,11,27,11,32,5.50
2011,11,27,11,33,4.40
2011,11,27,11,34,5.50
2011,11,27,11,35,8.20
2011,11,27,11,36,6.40
2011,11,27,11,37,3.00
2011,11,27,11,38,1.70
2011,11,27,11,39,0.30
2011,11,27,11,40,0.00
2011,11,27,11,41,3.60
2011,11,27,11,42,1.60
2011,11,27,11,43,0.20
2011,11,27,11,44,0.60
2011,11,27,11,45,1.50
2011,11,27,11,46,0.00
2011,11,27,11,47,0.80
2011,11,27,11,48,4.60
2011,11,27,11,49,6.20
2011,11,27,11,50,2.80
2011,11,27,11,51,6.40
2011,11,27,11,52,2.80
2011,11,27,11,53,4.40
2011,11,27,11,54,1.60
2011,11,27,11,55,7.30
2011,11,27,11,56,7.80
2011,11,27,11,57,8.80
2011,11,27,11,58,12.40
2011,11,27,11,59,8.10
2011,11,27,12,00,1.30
2011,11,27,12,01,3.40
2011,11,27,12,02,7.50
2011,11,27,12,03,11.80
2011,11,27,12,04,7.00
2011,11,27,12,05,8.20
2011,11,27,12,06,13.80
2011,11,27,12,07,12.60
2011,11,27,12,08,9.30
2011,11,27,12,09,9.30
2011,11,27,12,10,10.80
2011,11,27,12,11,12.20
2011,11,27,12,12,9.00
2011,11,27,12,13,9.50
2011,11,27,12,14,11.10
2011,11,27,12,15,8.50
2011,11,27,12,16,10.90
2011,11,27,12,17,18.90
2011,11,27,12,18,11.70
2011,11,27,12,19,8.20
2011,11,27,12,20,11.00
2011,11,27,12,21,9.70
2011,11,27,12,22,10.60
2011,11,27,12,23,10.70
2011,11,27,12,24,9.40
2011,11,27,12,25,12.60
2011,11,27,12,26,11.50
2011,11,27,12,27,7.00
2011,11,27,12,28,6.20
2011,11,27,12,29,4.70
2011,11,27,12,30,8.20
2011,11,27,12,31,7.60
2011,11,27,12,32,11.90
2011,11,27,12,33,2.00
2011,11,27,12,34,5.70
2011,11,27,12,35,10.70
2011,11,27,12,36,9.00
2011,11,27,12,37,9.10
2011,11,27,12,38,5.60
2011,11,27,12,39,9.70
2011,11,27,12,40,9.00
2011,11,27,12,41,5.50
2011,11,27,12,42,3.90
2011,11,27,12,43,5.70
2011,11,27,12,44,11.40
2011,11,27,12,45,6.60
2011,11,27,12,46,10.10
2011,11,27,12,47,8.50
2011,11,27,12,48,4.70
2011,11,27,12,49,2.20
2011,11,27,12,50,3.20
2011,11,27,12,51,1.20
2011,11,27,12,52,3.80
2011,11,27,12,53,2.40
2011,11,27,12,54,0.10
2011,11,27,12,55,8.00
2011,11,27,12,56,10.10
2011,11,27,12,57,6.20
2011,11,27,12,58,6.90
2011,11,27,12,59,10.90
2011,11,27,13,00,10.70
2011,11,27,13,01,12.10
2011,11,27,13,02,10.20
2011,11,27,13,03,8.80
2011,11,27,13,04,9.20
2011,11,27,13,05,5.20
2011,11,27,13,06,4.00
2011,11,27,13,07,10.40
2011,11,27,13,08,5.30
2011,11,27,13,09,10.50
2011,11,27,13,10,9.50
2011,11,27,13,11,15.90
2011,11,27,13,12,10.10
2011,11,27,13,13,13.70
2011,11,27,13,14,18.60
2011,11,27,13,15,18.70
2011,11,27,13,16,15.70
2011,11,27,13,17,20.40
2011,11,27,13,18,19.50
2011,11,27,13,19,14.00
2011,11,27,13,20,14.50
2011,11,27,13,21,16.50
2011,11,27,13,22,15.90
2011,11,27,13,23,19.30
2011,11,27,13,24,19.20
2011,11,27,13,25,16.40
2011,11,27,13,26,9.80
2011,11,27,13,27,14.70
2011,11,27,13,28,13.30
2011,11,27,13,29,12.50
2011,11,27,13,30,23.30
2011,11,27,13,31,16.60
2011,11,27,13,32,17.40
2011,11,27,13,33,15.20
2011,11,27,13,34,20.90
2011,11,27,13,35,29.80
2011,11,27,13,36,31.90
2011,11,27,13,37,30.30
2011,11,27,13,38,26.60
2011,11,27,13,39,27.70
2011,11,27,13,40,26.20
2011,11,27,13,41,25.70
2011,11,27,13,42,20.30
2011,11,27,13,43,32.80
2011,11,27,13,44,29.50
2011,11,27,13,45,24.10
2011,11,27,13,46,24.30
2011,11,27,13,47,21.00
2011,11,27,13,48,20.30
2011,11,27,13,49,16.80
2011,11,27,13,50,21.10
2011,11,27,13,51,22.00
2011,11,27,13,52,20.80
2011,11,27,13,53,24.90
2011,11,27,13,54,20.90
2011,11,27,13,55,15.10
2011,11,27,13,56,22.80
2011,11,27,13,57,22.50
2011,11,27,13,58,20.40
2011,11,27,13,59,12.80
2011,11,27,14,00,16.10
2011,11,27,14,01,15.20
2011,11,27,14,02,22.90
2011,11,27,14,03,16.30
2011,11,27,14,04,19.10
2011,11,27,14,05,21.10
2011,11,27,14,06,15.80
2011,11,27,14,07,25.30
2011,11,27,14,08,17.80
2011,11,27,14,09,26.50
2011,11,27,14,10,24.90
2011,11,27,14,11,20.40
2011,11,27,14,12,17.90
2011,11,27,14,13,18.70
2011,11,27,14,14,15.70
2011,11,27,14,15,19.30
2011,11,27,14,16,22.10
2011,11,27,14,17,20.90
2011,11,27,14,18,22.50
2011,11,27,14,19,18.80
2011,11,27,14,20,15.20
2011,11,27,14,21,21.40
2011,11,27,14,22,23.10
2011,11,27,14,23,21.50
2011,11,27,14,24,19.60
2011,11,27,14,25,18.80
2011,11,27,14,26,20.20
2011,11,27,14,27,20.20
2011,11,27,14,28,19.20
2011,11,27,14,29,14.70
2011,11,27,14,30,16.10
2011,11,27,14,31,20.10
2011,11,27,14,32,14.50
2011,11,27,14,33,13.60
2011,11,27,14,34,17.90
2011,11,27,14,35,16.20
2011,11,27,14,36,20.40
2011,11,27,14,37,23.10
2011,11,27,14,38,22.90
2011,11,27,14,39,14.60
2011,11,27,14,40,20.30
2011,11,27,14,41,16.70
2011,11,27,14,42,17.00
2011,11,27,14,43,17.60
2011,11,27,14,44,9.70
2011,11,27,14,45,8.50
2011,11,27,14,46,14.80
2011,11,27,14,47,12.30
2011,11,27,14,48,13.40
2011,11,27,14,49,15.30
2011,11,27,14,50,13.20
2011,11,27,14,51,17.40
2011,11,27,14,52,13.60
2011,11,27,14,53,11.80
2011,11,27,14,54,21.10
2011,11,27,14,55,17.80
2011,11,27,14,56,17.70
2011,11,27,14,57,16.90
2011,11,27,14,58,22.40
2011,11,27,14,59,15.00
2011,11,27,15,00,15.20
2011,11,27,15,01,13.90
2011,11,27,15,02,11.50
2011,11,27,15,03,10.10
2011,11,27,15,04,8.60
2011,11,27,15,05,16.50
2011,11,27,15,06,17.50
2011,11,27,15,07,11.90
2011,11,27,15,08,9.60
2011,11,27,15,09,8.40
2011,11,27,15,10,10.00
2011,11,27,15,11,11.70
2011,11,27,15,12,10.60
2011,11,27,15,13,12.10
2011,11,27,15,14,8.90
2011,11,27,15,15,9.30
2011,11,27,15,16,13.00
2011,11,27,15,17,9.40
2011,11,27,15,18,11.00
2011,11,27,15,19,8.00
2011,11,27,15,20,5.90
2011,11,27,15,21,6.20
2011,11,27,15,22,12.90
2011,11,27,15,23,13.20
2011,11,27,15,24,9.40
2011,11,27,15,25,9.90
2011,11,27,15,26,7.50
2011,11,27,15,27,6.90
2011,11,27,15,28,4.70
2011,11,27,15,29,4.20
2011,11,27,15,30,6.80
2011,11,27,15,31,8.50
2011,11,27,15,32,6.80
2011,11,27,15,33,6.10
2011,11,27,15,34,4.70
2011,11,27,15,35,4.30
2011,11,27,15,36,4.20
2011,11,27,15,37,6.10
2011,11,27,15,38,6.30
2011,11,27,15,39,6.30
2011,11,27,15,40,5.60
2011,11,27,15,41,6.30
2011,11,27,15,42,7.80
2011,11,27,15,43,4.30
2011,11,27,15,44,6.40
2011,11,27,15,45,5.50
2011,11,27,15,46,16.30
2011,11,27,15,47,12.60
2011,11,27,15,48,10.70
2011,11,27,15,49,11.80
2011,11,27,15,50,11.00
2011,11,27,15,51,11.50
2011,11,27,15,52,9.00
2011,11,27,15,53,9.80
2011,11,27,15,54,7.00
2011,11,27,15,55,9.50
2011,11,27,15,56,12.10
2011,11,27,15,57,10.40
2011,11,27,15,58,12.70
2011,11,27,15,59,11.00
2011,11,27,16,00,10.50
2011,11,27,16,01,10.70
2011,11,27,16,02,6.80
2011,11,27,16,03,7.20
2011,11,27,16,04,8.10
2011,11,27,16,05,9.30
2011,11,27,16,06,10.30
2011,11,27,16,07,7.50
2011,11,27,16,08,9.70
2011,11,27,16,09,7.00
2011,11,27,16,10,6.90
2011,11,27,16,11,5.20
2011,11,27,16,12,7.80
2011,11,27,16,13,9.20
2011,11,27,16,14,7.60
2011,11,27,16,15,10.90
2011,11,27,16,16,11.30
2011,11,27,16,17,6.40
2011,11,27,16,18,5.80
2011,11,27,16,19,4.90
2011,11,27,16,20,6.80
2011,11,27,16,21,3.30
2011,11,27,16,22,2.80
2011,11,27,16,23,1.70
2011,11,27,16,24,7.30
2011,11,27,16,25,8.90
2011,11,27,16,26,6.80
2011,11,27,16,27,4.40
2011,11,27,16,28,7.60
2011,11,27,16,29,4.50
2011,11,27,16,30,5.10
2011,11,27,16,31,3.60
2011,11,27,16,32,4.80
2011,11,27,16,33,3.50
2011,11,27,16,34,6.00
2011,11,27,16,35,5.80
2011,11,27,16,36,6.30
2011,11,27,16,37,5.50
2011,11,27,16,38,4.70
2011,11,27,16,39,8.70
2011,11,27,16,40,4.80
2011,11,27,16,41,1.90
2011,11,27,16,42,6.60
2011,11,27,16,43,6.40
2011,11,27,16,44,8.00
2011,11,27,16,45,7.00
2011,11,27,16,46,5.00
2011,11,27,16,47,3.80
2011,11,27,16,48,3.60
2011,11,27,16,49,1.10
2011,11,27,16,50,0.00
2011,11,27,16,51,0.50
2011,11,27,16,52,6.80
2011,11,27,16,53,4.10
2011,11,27,16,54,10.30
2011,11,27,16,55,9.70
2011,11,27,16,56,6.40
2011,11,27,16,57,10.10
2011,11,27,16,58,12.00
2011,11,27,16,59,4.70
2011,11,27,17,00,3.30
2011,11,27,17,01,4.00
2011,11,27,17,02,5.20
2011,11,27,17,03,4.60
2011,11,27,17,04,6.60
2011,11,27,17,05,7.90
2011,11,27,17,06,6.30
2011,11,27,17,07,6.40
2011,11,27,17,08,2.80
2011,11,27,17,09,1.60
2011,11,27,17,10,2.20
2011,11,27,17,11,0.10
2011,11,27,17,12,0.70
2011,11,27,17,13,0.50
2011,11,27,17,14,0.10
2011,11,27,17,15,0.00
2011,11,27,17,16,0.80
2011,11,27,17,17,0.00
2011,11,27,17,18,1.00
2011,11,27,17,19,2.80
2011,11,27,17,20,1.80
2011,11,27,17,21,3.20
2011,11,27,17,22,2.70
2011,11,27,17,23,2.20
2011,11,27,17,24,5.20
2011,11,27,17,25,6.00
2011,11,27,17,26,5.70
2011,11,27,17,27,3.40
2011,11,27,17,28,7.20
2011,11,27,17,29,1.70
2011,11,27,17,30,1.70
2011,11,27,17,31,0.70
2011,11,27,17,32,0.00
2011,11,27,17,33,2.40
2011,11,27,17,34,9.20
2011,11,27,17,35,3.40
2011,11,27,17,36,5.90
2011,11,27,17,37,3.90
2011,11,27,17,38,2.40
2011,11,27,17,39,0.20
2011,11,27,17,40,1.40
2011,11,27,17,41,0.00
2011,11,27,17,42,3.90
2011,11,27,17,43,2.60
2011,11,27,17,44,4.00
2011,11,27,17,45,3.50
2011,11,27,17,46,1.90
2011,11,27,17,47,0.10
2011,11,27,17,48,0.00
2011,11,27,17,49,0.00
2011,11,27,17,50,0.00
2011,11,27,17,51,2.60
2011,11,27,17,52,2.30
2011,11,27,17,53,2.70
2011,11,27,17,54,1.80